Weather History for Charlotte, MI

Change the Weather History Date:

Saturday, September 1, 2012

  Actual Average (KLAN) Record (KLAN)
Temperature  
Mean Temperature 73 °F 67 °F  
Max Temperature 83 °F 78 °F 96 °F (1953)
Min Temperature 63 °F 57 °F 30 °F (1867)
Degree Days  
Heating Degree Days 0 2  
Month to date heating degree days 2  
Since 1 July heating degree days 37  
Cooling Degree Days 8 4  
Month to date cooling degree days 4  
Year to date cooling degree days 561  
Growing Degree Days 23 (Base 50)    
Moisture  
Dew Point 57 °F    
Average Humidity 59    
Maximum Humidity 87    
Minimum Humidity 39    
Precipitation  
Precipitation 0.00 in 0.11 in 1.68 in (1914)
Month to date precipitation 0.11  
Year to date precipitation 21.20  
Snow  
Snow 0.00 in 0.00 in 0.00 in ()
Month to date snowfall 0.0  
Since 1 July snowfall 0.0  
Since 1 September snowfall 0.0  
Snow Depth -    
Sea Level Pressure  
Sea Level Pressure 30.09 in    
Wind  
Wind Speed 4 mph (NE)    
Max Wind Speed 9 mph    
Max Gust Speed -    
Visibility 10 miles    
Events      
T = Trace of Precipitation, MM = Missing Value Source: NWS Daily Summary

Daily Weather History Graph

Daily Weather History Graph

Search for Another Location

Airport:

Trip Planner

Search our weather history database for the weather conditions in past years. The results will help you decide how hot, cold, wet, or windy it might be!

Date:

Astronomy

Sep. 01, 2012 Rise Set
Actual Time 7:04 AM EDT 8:12 PM EDT
Civil Twilight 6:35 AM EDT 8:41 PM EDT
Nautical Twilight 6:01 AM EDT 9:16 PM EDT
Astronomical Twilight 5:24 AM EDT 9:52 PM EDT
Moon 8:25 PM EDT (9/1) 8:14 AM EDT (9/1)
Length of Visible Light 14h 05m
Length of Day
13h 07m
Full, 99% of the Moon is Illuminated
Sep 1
Full
Sep 8
Last Quarter
Sep 15
New
Sep 22
First Quarter
Sep 29
Full

Hourly Weather History & Observations

Time (EDT) Temp. Heat Index Dew Point Humidity Pressure Visibility Wind Dir Wind Speed Gust Speed Precip Events Conditions
12:15 AM 72.5 °F - 65.8 °F 80% 30.07 in 10.0 mi North 4.6 mph - N/A   Clear
12:35 AM 72.5 °F - 61.7 °F 69% 30.08 in 10.0 mi North 3.5 mph - N/A   Clear
12:55 AM 71.8 °F - 59.2 °F 64% 30.09 in 10.0 mi North 3.5 mph - N/A   Clear
1:15 AM 71.4 °F - 59.0 °F 65% 30.09 in 10.0 mi North 3.5 mph - N/A   Clear
1:35 AM 70.3 °F - 57.4 °F 63% 30.09 in 10.0 mi Calm Calm - N/A   Scattered Clouds
1:55 AM 70.2 °F - 55.0 °F 59% 30.10 in 10.0 mi Calm Calm - N/A   Mostly Cloudy
2:15 AM 69.6 °F - 55.8 °F 61% 30.10 in 10.0 mi Calm Calm - N/A   Overcast
2:35 AM 69.1 °F - 55.2 °F 61% 30.10 in 10.0 mi Calm Calm - N/A   Overcast
2:55 AM 67.3 °F - 56.3 °F 68% 30.10 in 10.0 mi North 4.6 mph - N/A   Scattered Clouds
3:15 AM 67.1 °F - 56.3 °F 68% 30.10 in 10.0 mi North 3.5 mph - N/A   Clear
3:35 AM 67.1 °F - 57.2 °F 70% 30.10 in 10.0 mi Calm Calm - N/A   Clear
3:55 AM 66.2 °F - 57.4 °F 73% 30.11 in 10.0 mi Calm Calm - N/A   Scattered Clouds
4:15 AM 66.6 °F - 58.1 °F 74% 30.11 in 10.0 mi North 3.5 mph - N/A   Mostly Cloudy
4:35 AM 65.3 °F - 58.5 °F 78% 30.11 in 10.0 mi North 3.5 mph - N/A   Scattered Clouds
4:55 AM 65.1 °F - 58.8 °F 80% 30.10 in 10.0 mi NNE 3.5 mph - N/A   Clear
5:15 AM 65.3 °F - 59.0 °F 80% 30.11 in 10.0 mi Calm Calm - N/A   Clear
5:35 AM 65.5 °F - 58.8 °F 79% 30.11 in 10.0 mi NE 4.6 mph - N/A   Clear
5:55 AM 65.5 °F - 58.5 °F 78% 30.12 in 10.0 mi NNE 3.5 mph - N/A   Clear
6:15 AM 64.6 °F - 58.8 °F 82% 30.12 in 10.0 mi North 3.5 mph - N/A   Clear
6:35 AM 64.4 °F - 59.4 °F 84% 30.12 in 10.0 mi NNE 3.5 mph - N/A   Clear
6:55 AM 63.9 °F - 59.5 °F 86% 30.12 in 10.0 mi NNE 4.6 mph - N/A   Clear
7:15 AM 63.9 °F - 59.9 °F 87% 30.12 in 10.0 mi NE 3.5 mph - N/A   Scattered Clouds
7:35 AM 64.4 °F - 59.9 °F 85% 30.12 in 10.0 mi NE 3.5 mph - N/A   Scattered Clouds
7:55 AM 65.5 °F - 59.0 °F 80% 30.12 in 10.0 mi NE 4.6 mph - N/A   Clear
8:15 AM 66.6 °F - 58.1 °F 74% 30.12 in 10.0 mi ENE 6.9 mph - N/A   Scattered Clouds
8:35 AM 67.3 °F - 57.4 °F 70% 30.13 in 10.0 mi ENE 4.6 mph - N/A   Mostly Cloudy
8:55 AM 68.0 °F - 57.6 °F 69% 30.13 in 10.0 mi Calm Calm - N/A   Overcast
9:15 AM 68.9 °F - 57.4 °F 67% 30.13 in 10.0 mi East 3.5 mph - N/A   Overcast
9:35 AM 70.0 °F - 57.2 °F 64% 30.12 in 10.0 mi East 4.6 mph - N/A   Overcast
9:55 AM 72.9 °F - 55.6 °F 55% 30.12 in 10.0 mi ENE 6.9 mph - N/A   Scattered Clouds
10:15 AM 74.3 °F - 54.0 °F 49% 30.12 in 10.0 mi ENE 9.2 mph - N/A   Clear
10:35 AM 75.2 °F - 53.6 °F 47% 30.13 in 10.0 mi East 6.9 mph - N/A   Clear
10:43 AM 75.7 °F - 53.2 °F 45% 30.13 in 10.0 mi East 6.9 mph - N/A   Clear
11:15 AM 76.8 °F - 53.2 °F 44% 30.13 in 10.0 mi ENE 6.9 mph - N/A   Mostly Cloudy
11:35 AM 77.5 °F - 52.5 °F 42% 30.13 in 10.0 mi East 5.8 mph - N/A   Overcast
12:15 PM 78.8 °F - 52.9 °F 40% 30.12 in 10.0 mi ENE 4.6 mph - N/A   Scattered Clouds
12:35 PM 79.3 °F - 54.0 °F 41% 30.12 in 10.0 mi NE 5.8 mph - N/A   Scattered Clouds
12:55 PM 80.6 °F 80.4 °F 54.1 °F 40% 30.11 in 10.0 mi East 4.6 mph - N/A   Mostly Cloudy
1:15 PM 81.3 °F 80.8 °F 54.0 °F 39% 30.11 in 10.0 mi East 6.9 mph - N/A   Scattered Clouds
1:35 PM 81.0 °F 80.6 °F 54.3 °F 40% 30.10 in 10.0 mi NE 5.8 mph - N/A   Clear
1:53 PM 81.1 °F 80.9 °F 55.4 °F 41% 30.10 in 10.0 mi East 5.8 mph - N/A   Clear
2:15 PM 82.9 °F 82.3 °F 56.1 °F 40% 30.09 in 10.0 mi ESE 6.9 mph - N/A   Clear
2:35 PM 82.8 °F 82.0 °F 55.6 °F 39% 30.09 in 10.0 mi ENE 4.6 mph - N/A   Scattered Clouds
2:55 PM 82.8 °F 82.1 °F 56.3 °F 40% 30.09 in 10.0 mi East 5.8 mph - N/A   Scattered Clouds
3:15 PM 82.4 °F 81.9 °F 56.5 °F 41% 30.07 in 10.0 mi ESE 6.9 mph - N/A   Scattered Clouds
3:35 PM 83.5 °F 83.1 °F 57.9 °F 42% 30.07 in 10.0 mi East 3.5 mph - N/A   Scattered Clouds
3:55 PM 83.3 °F 82.8 °F 57.2 °F 41% 30.06 in 10.0 mi East 5.8 mph - N/A   Mostly Cloudy
4:15 PM 82.4 °F 82.3 °F 58.3 °F 44% 30.06 in 10.0 mi East 3.5 mph - N/A   Overcast
4:35 PM 81.9 °F 81.8 °F 57.9 °F 44% 30.05 in 10.0 mi NE 6.9 mph - N/A   Overcast
4:55 PM 82.4 °F 82.2 °F 57.7 °F 43% 30.04 in 10.0 mi NE 5.8 mph - N/A   Overcast
5:15 PM 82.0 °F 82.0 °F 58.1 °F 44% 30.04 in 10.0 mi NE 6.9 mph - N/A   Overcast
5:35 PM 81.7 °F 81.6 °F 58.1 °F 44% 30.04 in 10.0 mi NE 6.9 mph - N/A   Mostly Cloudy
5:53 PM 81.5 °F 81.5 °F 57.7 °F 44% 30.03 in 10.0 mi NNE 5.8 mph - N/A   Overcast
6:15 PM 81.5 °F 81.5 °F 57.9 °F 44% 30.03 in 10.0 mi ENE 5.8 mph - N/A   Scattered Clouds
6:35 PM 79.2 °F - 58.3 °F 49% 30.04 in 10.0 mi NNE 9.2 mph - N/A   Mostly Cloudy
6:55 PM 78.3 °F - 57.7 °F 49% 30.04 in 10.0 mi NNE 8.1 mph - N/A   Mostly Cloudy
7:15 PM 77.2 °F - 57.2 °F 50% 30.04 in 10.0 mi NNE 8.1 mph - N/A   Mostly Cloudy
7:35 PM 76.8 °F - 56.1 °F 49% 30.04 in 10.0 mi NNE 8.1 mph - N/A   Mostly Cloudy
7:55 PM 76.1 °F - 56.1 °F 50% 30.05 in 10.0 mi NE 5.8 mph - N/A   Overcast
8:15 PM 75.9 °F - 55.4 °F 49% 30.05 in 10.0 mi NE 8.1 mph - N/A   Mostly Cloudy
8:35 PM 75.4 °F - 56.3 °F 51% 30.05 in 10.0 mi ENE 5.8 mph - N/A   Mostly Cloudy
8:55 PM 74.8 °F - 57.6 °F 55% 30.05 in 10.0 mi ENE 5.8 mph - N/A   Overcast
9:15 PM 74.3 °F - 58.3 °F 57% 30.05 in 10.0 mi ENE 5.8 mph - N/A   Overcast
9:35 PM 73.8 °F - 59.0 °F 60% 30.06 in 10.0 mi ENE 5.8 mph - N/A   Overcast
9:55 PM 72.7 °F - 59.0 °F 62% 30.06 in 10.0 mi NE 4.6 mph - N/A   Overcast
10:15 PM 71.8 °F - 59.4 °F 65% 30.05 in 10.0 mi NE 4.6 mph - N/A   Scattered Clouds
10:35 PM 71.6 °F - 59.9 °F 66% 30.06 in 10.0 mi NE 4.6 mph - N/A   Clear
10:55 PM 70.7 °F - 60.1 °F 69% 30.05 in 10.0 mi Calm Calm - N/A   Scattered Clouds
11:15 PM 70.2 °F - 60.8 °F 72% 30.05 in 10.0 mi ENE 3.5 mph - N/A   Clear
11:35 PM 70.0 °F - 62.2 °F 76% 30.05 in 10.0 mi NE 5.8 mph - N/A   Mostly Cloudy
11:55 PM 70.3 °F - 63.5 °F 79% 30.05 in 10.0 mi ENE 5.8 mph - N/A   Mostly Cloudy